Вернуться в каталог

HYLAS 1

АктивенСвязьGEO
NORAD 37237·PAYLOAD·🇬🇧 United Kingdom

Запущен Nov 26, 2010 с Guiana Space Centre

Loading…

TLE

СвежийSource: Space-Track

Эпоха: Sep 14, 2026, 21:11 UTC

1 37237U 10065A   26257.88317390 -.00000357  00000-0  00000-0 0  9991
2 37237   5.8646  71.8731 0003432 157.0654 198.7827  1.00641771  7781

Отслеживайте HYLAS 1 в реальном времени с AllMySat

Download on the App Store